Commit Graph

39 Commits

Author SHA1 Message Date
pypy 4ad277e8ef add sorting of world and avatar (closes #39) 2020-03-21 20:44:00 +09:00
pypy e294b89cbc cleanup html 2020-03-21 19:53:46 +09:00
pypy 3f7940c577 fixes an issue that searching world incorrectly 2020-03-21 19:50:24 +09:00
pypy 81694ec60a start at windows startup 2020-03-21 18:01:47 +09:00
pypy d1c84a8f25 add tray menu and remember window state (closes #34) 2020-03-21 17:53:11 +09:00
pypy 2db0d6294c open external link 2020-03-21 15:30:13 +09:00
pypy cc3d89a954 add bio editing 2020-03-21 14:54:55 +09:00
pypy 59e74b78cb cleanup html 2020-03-21 14:54:18 +09:00
pypy e2789f119f add language feature 2020-03-21 14:07:29 +09:00
pypy 3045bab626 add famfamfam-flags icon 2020-03-21 13:34:12 +09:00
pypy 0e7a29da37 cleanup code 2020-03-21 13:20:38 +09:00
pypy 0a75f11421 change label 2020-02-27 01:38:04 +09:00
pypy 5a3068ccbc apply status system changes 2020-02-25 22:32:16 +09:00
pypy a66c2fda95 bug fix 2020-02-01 14:46:36 +09:00
pypy db4796c912 bump up library versions 2020-02-01 13:39:45 +09:00
pypy a50b6fbb7d add margin between status symbol and name 2020-01-14 02:30:04 +09:00
pypy 5f71d290f3 cleanup 2020-01-14 02:19:44 +09:00
pypy d807212456 suppress warnings temporarily 2020-01-13 01:04:03 +09:00
pypy fcf973bb7e shows user's bio 2020-01-13 00:56:38 +09:00
pypy 7a9855d12c displayname and username on singleline 2020-01-13 00:55:25 +09:00
pypy f234f882a1 show active states 2020-01-13 00:53:37 +09:00
pypy 12e8f7f45f chagne menu item order, cleanup code 2020-01-12 21:50:12 +09:00
pypy 75b9849a65 always show name color, add dark mode 2020-01-12 21:07:48 +09:00
pypy ef658cbb27 show name color in user search 2020-01-12 21:06:53 +09:00
pypy e436fa92cc cleanup html 2020-01-12 19:25:14 +09:00
pypy b7cd2d8fee cleanup code 2020-01-12 19:13:42 +09:00
pypy 794c8e0b93 cleanup code 2020-01-12 07:32:45 +09:00
pypy f4842bec59 rename '_' postfix to '$' prefix on VRCX internal variables 2020-01-11 23:13:58 +09:00
pypy ba0465f4a0 remove legacy code 2020-01-11 22:25:40 +09:00
pypy 9c07956a0c rename config to cachedConfig 2020-01-11 22:16:50 +09:00
pypy 149a2117b0 v2019.11.18 2019-11-18 23:12:01 +09:00
pypy 23c108c266 v2019.10.31.1 2019-10-31 02:23:34 +09:00
pypy b5cd4b3184 v2019.10.31 2019-10-31 01:36:04 +09:00
pypy 8789b48ba9 v2019.09.26 2019-09-26 02:15:34 +09:00
pypy fb4c04ff61 v2019.08.20 2019-08-20 14:30:40 +09:00
mog422 a095c994b9 Show name color by trust level when display name 2019-08-20 12:14:02 +09:00
pypy d725c8f1e3 v2017.08.17.1 2019-08-17 21:55:24 +09:00
pypy 095f9c0d59 v2019.08.17 2019-08-17 04:13:48 +09:00
pypy 90f096c497 Initial commit 2019-08-16 22:53:04 +09:00